Weather History for Upington, South Africa

Change the Weather History Date:

Thursday, October 18, 2012

  Actual Average Record
Temperature  
Mean Temperature 70 °F -  
Max Temperature 84 °F 87 °F 96 °F (2004)
Min Temperature 55 °F 58 °F 45 °F (2013)
Cooling Degree Days 4    
Growing Degree Days 20 (Base 50)    
Moisture  
Dew Point 43 °F    
Average Humidity 40    
Maximum Humidity 82    
Minimum Humidity 9    
Precipitation  
Precipitation 0.00 in 0.00 in - ()
Sea Level Pressure  
Sea Level Pressure 29.91 in    
Wind  
Wind Speed 7 mph ()    
Max Wind Speed 20 mph    
Max Gust Speed -    
Visibility 6.2 miles    
Events      
Averages and records for this station are not official NWS values.
T = Trace of Precipitation, MM = Missing Value Source: Averaged Metar Reports

Daily Weather History Graph

Daily Weather History Graph

Search for Another Location

Airport:

Trip Planner

Search our weather history database for the weather conditions in past years. The results will help you decide how hot, cold, wet, or windy it might be!

Date:

Astronomy

Oct. 18, 2012 Rise Set
Actual Time 5:54 AM SAST 6:45 PM SAST
Civil Twilight 5:30 AM SAST 7:09 PM SAST
Nautical Twilight 5:02 AM SAST 7:38 PM SAST
Astronomical Twilight 4:33 AM SAST 8:07 PM SAST
Moon 8:06 AM SAST (10/18) 10:13 PM SAST (10/18)
Length of Visible Light 13h 38m
Length of Day
12h 50m
Waxing Crescent, 12% of the Moon is Illuminated
Oct 18
Waxing Crescent
Oct 22
First Quarter
Oct 29
Full
Nov 7
Last Quarter
Nov 14
New

Hourly Weather History & Observations

Time (SAST) Temp. Dew Point Humidity Pressure Visibility Wind Dir Wind Speed Gust Speed Precip Events Conditions
12:00 AM 69.8 °F 46.4 °F 43% 29.92 in - SSW 12.7 mph - N/A   Unknown
1:00 AM 66.2 °F 48.2 °F 52% 29.95 in - SSW 11.5 mph - N/A   Unknown
2:00 AM 64 °F 49 °F 48%  in - SSW 6.9 mph - -  
2:00 AM 62.6 °F 48.2 °F 59% 29.92 in - SSW 5.8 mph - N/A   Unknown
3:00 AM 60.8 °F 50.0 °F 68% 29.92 in - SSW 3.5 mph - N/A   Unknown
4:00 AM 57.2 °F 50.0 °F 77% 29.92 in - South 6.9 mph - N/A   Unknown
5:00 AM 58 °F 51 °F 69%  in 25 mi SSW 6.9 mph - -  
5:00 AM 57.2 °F 50.0 °F 77% 29.92 in - SSW 5.8 mph - N/A   Clear
6:00 AM 55.4 °F 50.0 °F 82% 29.92 in - South 4.6 mph - N/A   Clear
6:30 AM 59.0 °F 51.8 °F 77% 29.95 in - SSW 2.3 mph - N/A   Clear
7:00 AM 60.8 °F 50.0 °F 68% 29.95 in - South 3.5 mph - N/A   Clear
7:25 AM 64.4 °F 50.0 °F 59% 29.95 in - SSE 4.6 mph - N/A   Clear
8:00 AM 67 °F 51 °F 46%  in 25 mi East 3.5 mph - -  
8:00 AM 66.2 °F 50.0 °F 56% 29.95 in - East 3.5 mph - N/A   Clear
8:40 AM 69.8 °F 48.2 °F 46% 29.95 in - ESE 2.3 mph - N/A   Clear
9:00 AM 69.8 °F 46.4 °F 43% 29.95 in - ESE 3.5 mph - N/A   Clear
9:41 AM 73.4 °F 42.8 °F 33% 29.95 in - East 3.5 mph - N/A   Clear
10:00 AM 71.6 °F 42.8 °F 35% 29.95 in - ESE 4.6 mph - N/A   Clear
10:33 AM 75.2 °F 39.2 °F 27% 29.95 in - SSE 2.3 mph - N/A   Clear
11:00 AM 76 °F 41 °F 18%  in 25 mi SE 5.8 mph - -  
11:00 AM 75.2 °F 41.0 °F 29% 29.95 in - SE 4.6 mph - N/A   Clear
12:00 PM 78.8 °F 37.4 °F 23% 29.92 in - South 6.9 mph - N/A   Clear
1:00 PM 78.8 °F 37.4 °F 23% 29.89 in - WSW 6.9 mph - N/A   Clear
2:00 PM 80 °F 37 °F 12%  in 25 mi SSW 6.9 mph - -  
2:00 PM 78.8 °F 35.6 °F 21% 29.86 in - SSW 5.8 mph - N/A   Clear
3:00 PM 82.4 °F 35.6 °F 19% 29.83 in - SSW 10.4 mph - N/A   Clear
4:00 PM 82.4 °F 33.8 °F 17% 29.83 in - SW 8.1 mph - N/A   Clear
5:00 PM 83 °F 35 °F 9%  in 25 mi WSW 9.2 mph - -   Scattered Clouds
5:00 PM 82.4 °F 33.8 °F 17% 29.83 in 6.2 mi WSW 8.1 mph - N/A   Partly Cloudy
6:00 PM 80.6 °F 33.8 °F 18% 29.83 in 6.2 mi SW 12.7 mph - N/A   Partly Cloudy
7:00 PM 77.0 °F 33.8 °F 21% 29.83 in 6.2 mi WSW 8.1 mph - N/A   Partly Cloudy
8:00 PM 71 °F 39 °F 20%  in 25 mi WSW 6.9 mph - -   Scattered Clouds
8:00 PM 69.8 °F 37.4 °F 31% 29.83 in 6.2 mi WSW 5.8 mph - N/A   Partly Cloudy
9:00 PM 71.6 °F 32.0 °F 23% 29.86 in - WSW 10.4 mph - N/A   Unknown
10:00 PM 68.0 °F 42.8 °F 40% 29.89 in - SSW 18.4 mph - N/A   Unknown
11:00 PM 64 °F 44 °F 38%  in - SSW 19.6 mph - -  
11:00 PM 62.6 °F 42.8 °F 48% 29.92 in - SSW 18.4 mph - N/A   Unknown